Hourly Data Report for October 17, 2016

All times are specified in Local Standard Time (LST). Add 1 hour to adjust for Daylight Saving Time where and when it is observed.

BAKER LAKE A
NUNAVUT

64°17'56.000" N
96°04'40.000" W
18.60 m
2300503
71926
YBK

Download Data

Hourly Data (October 2016)
Hourly Data Report for October 17, 2016
Temp Definition
°C
Dew Point Temp Definition
°C
Rel Hum Definition
%
Wind Dir Definition
10's deg

Wind Spd Definition
km/h
Visibility Definition
km
Stn Press Definition
kPa
Hmdx Definition


Wind Chill Definition


Weather Definition


TIME
00:00 Legend Double Dagger -8.6 -10.0 90 19 9 24.1 101.67   -13 Cloudy
01:00 Legend Double Dagger -8.5 -10.4 86 17 11 24.1 101.68   -14 Snow
02:00 Legend Double Dagger -8.1 -9.9 87 16 4 24.1 101.68   -10 Snow
03:00 Legend Double Dagger -7.4 -8.9 89 17 6 24.1 101.66   -11 Snow
04:00 Legend Double Dagger -6.8 -8.5 88 15 6 24.1 101.63   -10 Snow
05:00 Legend Double Dagger -6.3 -8.0 88 14 14 24.1 101.65   -12 Snow
06:00 Legend Double Dagger -6.4 -7.8 90 17 11 24.1 101.66   -11 Snow
07:00 Legend Double Dagger -6.0 -8.0 86 14 15 32.2 101.68   -12 Snow
08:00 Legend Double Dagger -5.2 -7.0 87 13 17 16.1 101.69   -11 Snow
09:00 Legend Double Dagger -5.9 -7.4 89 7 22 16.1 101.71   -13 Snow
10:00 Legend Double Dagger -6.0 -7.7 88 7 22 4.8 101.73   -13 Snow
11:00 Legend Double Dagger -6.3 -8.1 87 7 28 9.7 101.75   -14 Snow
12:00 Legend Double Dagger -6.0 -7.7 88 6 23 6.4 101.76   -13 Snow
13:00 Legend Double Dagger -5.2 -6.9 88 7 26 6.4 101.76   -13 Snow
14:00 Legend Double Dagger -5.2 -6.9 88 7 24 6.4 101.76   -12 Snow
15:00 Legend Double Dagger -4.9 -6.6 88 6 25 9.7 101.75   -12 Snow
16:00 Legend Double Dagger -4.9 -6.6 88 6 23 16.1 101.78   -12 Snow
17:00 Legend Double Dagger -4.9 -6.4 89 7 30 9.7 101.82   -13 Snow
18:00 Legend Double Dagger -5.0 -6.5 89 7 27 6.4 101.85   -13 Snow
19:00 Legend Double Dagger -5.0 -6.5 89 7 28 16.1 101.84   -13 Snow
20:00 Legend Double Dagger -5.1 -6.8 88 7 29 24.1 101.84   -13 Snow
21:00 Legend Double Dagger -5.1 -6.6 89 6 23 24.1 101.86   -12 Snow
22:00 Legend Double Dagger -5.1 -6.6 89 6 21 24.1 101.86   -12 Snow
23:00 Legend Double Dagger -5.0 -6.4 90 6 22 24.1 101.86   -12 Snow

Notes on Data Quality.

Legend

  • E = Estimated
  • M = Missing
  • NA = Not Available
  • ‡ = Partner data that is not subject to review by the National Climate Archives
Date modified: